[[{"header":{"parameterUnit":"m.s-1","parameterCategory":1,"la1":30.2991,"la2":30.254,"lo1":-89.0895,"lo2":-89.0444,"dx":0.0017,"dy":0.0017,"nx":28,"ny":28,"refTime":"2022-12-29T09:00:00:Z","depth":0,"parameterNumber":2,"parameterNumberName":"U-component_of_WINDS"},"data":[0,0,0,0,0,0,0,0,0,0,0,0,0,0,0,0,0,0,0,0,0,0,0,0,0,0,0,0,0,0,0,0,0,0,0,0,0,0,0,0,0,0,0,0,0,0,0,0,0,0,0,0,0,0,0,0,0,0,-5.8854,-5.8854,0,-5.89,-5.89,-5.8901,-5.8838,-5.8836,-5.8834,-5.8832,-5.8874,-5.8877,-5.888,0,0,0,0,0,0,0,0,0,0,0,0,0,-5.8709,-5.8712,-5.8854,-5.8854,-5.8855,-5.89,-5.89,-5.8901,-5.8839,-5.8836,-5.8833,-5.8831,-5.8873,-5.8876,-5.888,0,0,0,0,0,0,0,0,0,0,0,0,0,-5.8765,-5.8713,-5.8853,-5.8829,-5.8828,-5.8899,-5.89,-5.8901,-5.8839,-5.8836,-5.8833,-5.883,-5.8871,-5.8876,-5.8881,-5.8977,0,0,-5.8895,-5.8897,0,0,0,0,0,0,0,0,-5.8762,-5.877,-5.8832,-5.8831,-5.8829,-5.886,-5.8864,-5.8926,-5.884,-5.8835,-5.8832,-5.8828,-5.8871,-5.8876,-5.8892,-5.8978,-5.898,-5.8896,-5.8899,-5.8901,-5.8902,0,0,0,0,0,0,0,-5.8758,-5.8768,-5.8872,-5.8833,-5.8832,-5.8815,-5.882,-5.8876,-5.8871,-5.8835,-5.8831,-5.8837,-5.887,-5.8887,-5.8892,-5.8981,-5.8895,-5.89,-5.8903,-5.8905,-5.915,-5.9154,0,0,0,0,0,0,-5.8758,-5.8765,-5.887,-5.8873,-5.8787,-5.8821,-5.8825,-5.8853,-5.887,-5.887,-5.884,-5.8834,-5.8881,-5.8887,-5.8893,-5.9007,-5.8901,-5.8905,-5.8908,-5.9147,-5.9151,-5.9155,0,0,0,0,0,0,-5.8755,-5.8768,-5.8868,-5.8818,-5.883,-5.8827,-5.8859,-5.8856,-5.8873,-5.8874,-5.8872,-5.8859,-5.8878,-5.8887,-5.8957,-5.9008,-5.8907,-5.8911,-5.9142,-5.9148,-5.9153,-5.9235,0,0,0,0,0,0,-5.8751,-5.8767,-5.8804,-5.8819,-5.8833,-5.8932,-5.8862,-5.8859,-5.8882,-5.8875,-5.8891,-5.8891,-5.8876,-5.895,-5.8962,-5.9012,-5.8915,-5.9138,-5.9145,-5.9151,-5.9228,-5.9243,-5.9255,0,0,0,0,0,-5.8746,-5.8823,-5.8806,-5.8819,-5.8879,-5.8935,-5.8942,-5.8926,-5.8887,-5.8923,-5.8924,-5.889,-5.9001,-5.8958,-5.897,-5.9023,-5.9134,-5.9143,-5.9151,-5.9221,-5.924,-5.9255,0,0,0,0,0,0,-5.881,-5.8825,-5.8805,-5.889,-5.8913,-5.8925,-5.897,-5.8946,-5.8977,-5.8969,-5.8946,-5.895,-5.9026,-5.9032,-5.8983,-5.9118,-5.9061,-5.9072,-5.911,-5.9128,-5.9141,-5.9137,-5.8919,0,0,0,0,0,-5.8835,-5.8882,-5.8891,-5.8965,-5.8977,-5.8972,-5.8996,-5.8982,-5.9003,-5.9011,-5.9017,-5.9037,-5.9077,-5.9103,-5.9139,-5.923,-5.9232,-5.9272,-5.9286,-5.9298,-5.9306,-5.9355,-5.9373,-5.9182,-5.9182,-5.9182,0,0,-5.8885,-5.8899,-5.8929,-5.8978,-5.8993,-5.9041,-5.898,-5.9032,-5.9066,-5.9018,-5.9085,-5.9091,-5.9113,-5.9194,-5.923,-5.9201,-5.9361,-5.9308,-5.9317,-5.932,-5.9366,-5.9384,-5.94,-5.9188,-5.9187,-5.9186,0,0,-5.9,-5.9016,-5.908,-5.9098,-5.9123,-5.912,-5.9136,-5.9153,-5.9155,-5.9223,-5.9189,-5.923,-5.9298,-5.9315,-5.9332,-5.946,-5.9429,-5.9472,-5.9543,-5.9591,-5.9606,-5.9619,-5.9664,-5.968,-5.9482,-5.9482,-5.9482,0,-5.9058,-5.913,-5.9115,-5.9171,-5.9194,-5.9157,-5.9221,-5.9238,-5.9273,-5.9289,-5.9258,-5.9345,-5.9357,-5.9441,-5.9473,-5.9489,-5.9505,-5.9468,-5.9606,-5.9619,-5.9631,-5.9673,-5.969,-5.9487,-5.9486,-5.9486,-5.9486,0,-5.92,-5.9251,-5.9299,-5.9337,-5.9366,-5.9425,-5.9419,-5.945,-5.9435,-5.9435,-5.9506,-5.9519,-5.9558,-5.9578,-5.9563,-5.9662,-5.9643,-5.961,-5.9551,-5.9654,-5.9693,-5.9709,-5.9494,-5.9492,-5.9491,-5.949,0,0,-5.9352,-5.9386,-5.9403,-5.9421,-5.9448,-5.9486,-5.9545,-5.9586,-5.9613,-5.964,-5.9687,-5.9749,-5.9719,-5.9739,-5.9726,-5.9768,-5.9868,-5.9729,-5.9729,-5.9753,-5.9977,-6.0001,-6.002,-5.985,-5.9853,-5.9855,-5.9975,0,-5.9467,-5.957,-5.9561,-5.9658,-5.9704,-5.9672,-5.9723,-5.9745,-5.9748,-5.9787,-5.979,-5.9834,-5.9791,-5.9803,-5.9844,-5.9847,-5.9912,-5.9839,-5.9892,-5.9894,-5.9885,-6.0041,-6.0065,-6.0177,-5.9991,-5.9993,-5.9995,0,-5.9612,-5.9648,-5.9751,-5.9774,-5.9793,-5.9839,-5.9877,-5.9916,-5.9941,-5.994,-5.9966,-5.9946,-6.0005,-5.9949,-6.0029,-5.9979,-6.0001,-6.0006,-6.001,-6.0012,-5.9949,-6.0045,-6.0213,-6.0229,-6.0019,-6.0017,-6.0015,0,-5.9712,-5.9785,-5.9857,-5.9873,-5.9902,-5.9936,-5.9949,-5.9971,-5.9997,-6.0031,-6.0047,-6.0086,-6.0107,-6.0138,-6.0129,-6.0089,-6.0211,-6.0154,-6.0211,-6.0211,-6.0235,-6.0233,-6.0407,-6.0254,-6.0253,-6.0253,-6.0253,0,-5.9839,-5.9903,-5.9902,-5.9946,-6.0017,-6.0006,-6.0076,-6.0086,-6.0107,-6.0151,-6.0125,-6.0167,-6.0155,-6.0196,-6.019,-6.0257,-6.0267,-6.0267,-6.0264,-6.0268,-6.0268,-6.0279,-6.0271,-6.0257,-6.0256,-6.0256,-6.0255,0,-5.996,-5.9962,-6.0038,-6.0061,-6.0069,-6.012,-6.0139,-6.018,-6.0183,-6.024,-6.0252,-6.0256,-6.0304,-6.03,-6.0352,-6.0348,-6.0431,-6.042,-6.0423,-6.042,-6.0476,-6.047,-6.0662,-6.0686,-6.0519,-6.0521,-6.0522,0,-6.0039,-6.0088,-6.0118,-6.0148,-6.0164,-6.0211,-6.0239,-6.0232,-6.0261,-6.0296,-6.0333,-6.0379,-6.0415,-6.0493,-6.0499,-6.054,-6.0528,-6.0593,-6.0533,-6.0536,-6.0527,-6.0523,-6.0528,-6.0603,-6.0605,-6.0606,-6.0607,0,-6.018,-6.018,-6.0222,-6.0266,-6.0301,-6.0334,-6.0364,-6.0389,-6.0385,-6.042,-6.047,-6.0498,-6.0555,-6.06,-6.064,-6.0652,-6.0629,-6.0627,-6.0642,-6.0644,-6.0644,-6.0644,-6.0453,-6.0621,-6.062,-6.0619,-6.0618,-6.0618,-6.0281,-6.0324,-6.0353,-6.0401,-6.0424,-6.0454,-6.0495,-6.0505,-6.0547,-6.0593,-6.0587,-6.0643,-6.0669,-6.072,-6.0737,-6.078,-6.0756,-6.0778,-6.0783,-6.0788,-6.0794,-6.064,-6.0787,-6.0787,-6.0786,-6.0786,-6.0786,0,-6.0419,-6.0437,-6.0482,-6.0528,-6.0566,-6.0546,-6.0579,-6.0612,-6.0662,-6.069,-6.0728,-6.0786,-6.0831,-6.0844,-6.0887,-6.0919,-6.091,-6.093,-6.0926,-6.0929,-6.0813,-6.0795,-6.0937,-6.0937,-6.0937,-6.0937,-6.0937,-6.0937,-6.0495,-6.0566,-6.0571,-6.0654,-6.0671,-6.0728,-6.0749,-6.0776,-6.0799,-6.0866,-6.0904,-6.0913,-6.0935,-6.0981,-6.1021,-6.1024,-6.104,-6.1064,-6.1062,-6.0953,-6.0937,-6.0923,-6.0906,-6.1069,-6.1069,-6.1175,-6.1176,-6.1176]},{"header":{"parameterUnit":"m.s-1","parameterCategory":1,"la1":30.2991,"la2":30.254,"lo1":-89.0895,"lo2":-89.0444,"dx":0.0017,"dy":0.0017,"nx":28,"ny":28,"refTime":"2022-12-29T09:00:00:Z","depth":0,"parameterNumber":3,"parameterNumberName":"V-component_of_WINDS"},"data":[0,0,0,0,0,0,0,0,0,0,0,0,0,0,0,0,0,0,0,0,0,0,0,0,0,0,0,0,0,0,0,0,0,0,0,0,0,0,0,0,0,0,0,0,0,0,0,0,0,0,0,0,0,0,0,0,0,0,2.0819,2.0821,0,2.0928,2.0929,2.093,2.0999,2.0999,2.1,2.1,2.1107,2.111,2.1112,0,0,0,0,0,0,0,0,0,0,0,0,0,2.0671,2.0674,2.0819,2.0821,2.0822,2.0928,2.0929,2.0931,2.0999,2.0999,2.1,2.1,2.1107,2.111,2.1113,0,0,0,0,0,0,0,0,0,0,0,0,0,2.0753,2.0674,2.0819,2.0869,2.0875,2.0927,2.0929,2.0931,2.0999,2.0999,2.1,2.1001,2.1106,2.1109,2.1113,2.1124,0,0,2.1124,2.1126,0,0,0,0,0,0,0,0,2.0748,2.0758,2.086,2.0866,2.0872,2.0951,2.0916,2.0995,2.0999,2.0951,2.1,2.1001,2.1055,2.1062,2.1081,2.1129,2.1133,2.1125,2.1127,2.1128,2.1129,0,0,0,0,0,0,0,2.0743,2.0754,2.0862,2.0862,2.0869,2.0886,2.0898,2.0932,2.0998,2.0956,2.0961,2.0973,2.1058,2.1078,2.1084,2.1135,2.1124,2.1128,2.113,2.1132,2.1201,2.1201,0,0,0,0,0,0,2.0729,2.0749,2.0859,2.0865,2.0811,2.0888,2.0902,2.0925,2.0998,2.101,2.0972,2.0976,2.1071,2.108,2.1088,2.1109,2.1128,2.1132,2.1134,2.1201,2.1201,2.12,0,0,0,0,0,0,2.0726,2.0738,2.0854,2.0809,2.0825,2.089,2.0915,2.0926,2.0946,2.1011,2.1023,2.098,2.1072,2.1083,2.1116,2.1113,2.1134,2.1137,2.1202,2.1201,2.1201,2.1147,0,0,0,0,0,0,2.0721,2.0737,2.0741,2.0808,2.0827,2.088,2.0915,2.0928,2.0953,2.0959,2.1021,2.1032,2.1073,2.111,2.1119,2.1119,2.114,2.1202,2.1202,2.1201,2.115,2.1145,2.1141,0,0,0,0,0,2.0716,2.072,2.0741,2.0754,2.0834,2.0879,2.089,2.0938,2.0953,2.0958,2.1,2.103,2.1112,2.1113,2.1124,2.1124,2.1203,2.1202,2.1201,2.1151,2.1146,2.1141,0,0,0,0,0,0,2.0648,2.0729,2.0754,2.078,2.0822,2.0891,2.0899,2.093,2.0968,2.0971,2.1028,2.1042,2.1069,2.11,2.1099,2.1141,2.1161,2.1162,2.112,2.1115,2.1111,2.1103,2.1143,0,0,0,0,0,2.0636,2.0667,2.0736,2.0753,2.0773,2.0832,2.0854,2.0888,2.0933,2.0951,2.0995,2.1038,2.1074,2.1096,2.1132,2.1155,2.1171,2.1161,2.1157,2.1153,2.1153,2.1171,2.1168,2.1198,2.1198,2.1198,0,0,2.0612,2.066,2.0676,2.074,2.0777,2.0808,2.0847,2.0876,2.09,2.0955,2.099,2.1024,2.1076,2.1104,2.1119,2.1131,2.1149,2.1152,2.1148,2.1151,2.117,2.1167,2.1165,2.1197,2.1197,2.1197,0,0,2.0584,2.0623,2.0643,2.068,2.0737,2.0777,2.0782,2.0847,2.0873,2.0909,2.0952,2.0981,2.104,2.1077,2.1103,2.1094,2.1124,2.1104,2.1082,2.1098,2.1096,2.1094,2.1093,2.1092,2.1104,2.1104,2.1104,0,2.0546,2.0595,2.0648,2.0678,2.0706,2.076,2.0782,2.0815,2.088,2.0898,2.0911,2.099,2.1028,2.1068,2.1067,2.1085,2.1094,2.1097,2.1092,2.1091,2.109,2.109,2.1089,2.1102,2.1102,2.1102,2.1102,0,2.0547,2.058,2.059,2.0654,2.0684,2.0708,2.0767,2.079,2.0822,2.0861,2.0899,2.0948,2.0997,2.1009,2.1039,2.1054,2.106,2.1081,2.1103,2.1084,2.1085,2.1085,2.1098,2.1099,2.11,2.11,0,0,2.0476,2.0574,2.0576,2.0608,2.0677,2.0704,2.0732,2.0783,2.0803,2.0846,2.0873,2.0925,2.0947,2.0977,2.1012,2.1027,2.102,2.1047,2.105,2.1042,2.1042,2.1026,2.1025,2.1041,2.1041,2.1041,2.1039,0,2.0459,2.0515,2.0566,2.0603,2.0636,2.069,2.0716,2.0761,2.0799,2.0833,2.0875,2.0912,2.0937,2.0956,2.0973,2.1017,2.1021,2.1018,2.1066,2.1067,2.1052,2.1025,2.1007,2.1002,2.1039,2.1039,2.1039,0,2.0446,2.0491,2.0532,2.0602,2.0618,2.064,2.0692,2.0724,2.0777,2.0804,2.084,2.0879,2.0913,2.0931,2.098,2.0977,2.1,2.1025,2.1026,2.1033,2.1052,2.1032,2.1001,2.1001,2.104,2.104,2.104,0,2.0393,2.0464,2.0499,2.0524,2.0605,2.062,2.0655,2.0709,2.0738,2.0783,2.0803,2.085,2.0877,2.0913,2.0964,2.0973,2.1009,2.103,2.1033,2.1031,2.1037,2.1036,2.1011,2.105,2.105,2.105,2.105,0,2.037,2.0393,2.0477,2.0498,2.0527,2.0586,2.0613,2.0652,2.0701,2.0731,2.0781,2.0808,2.0874,2.0909,2.0949,2.0985,2.0996,2.1019,2.103,2.1015,2.1013,2.1031,2.1033,2.105,2.105,2.105,2.105,0,2.0315,2.0371,2.0413,2.0489,2.0509,2.0527,2.0591,2.0615,2.0658,2.0696,2.0708,2.0775,2.082,2.0875,2.0936,2.0964,2.0996,2.1011,2.0978,2.0985,2.0984,2.0984,2.0971,2.0973,2.1009,2.1009,2.1008,0,2.0296,2.0316,2.0395,2.042,2.0454,2.0493,2.0524,2.0584,2.0613,2.0679,2.0695,2.0744,2.0787,2.0856,2.091,2.0958,2.0976,2.0968,2.0983,2.0969,2.0978,2.0976,2.098,2.0963,2.0963,2.0962,2.0962,0,2.0258,2.0286,2.0328,2.0382,2.0418,2.0462,2.0509,2.0526,2.0596,2.0627,2.0675,2.0709,2.0775,2.0823,2.088,2.0915,2.0951,2.0957,2.0961,2.0946,2.0927,2.0939,2.0969,2.0957,2.0957,2.0958,2.0958,2.0958,2.0222,2.0243,2.0304,2.035,2.0393,2.0436,2.0463,2.0511,2.0553,2.0612,2.0645,2.0693,2.075,2.083,2.0865,2.0903,2.0915,2.0919,2.0921,2.0921,2.0918,2.0921,2.0913,2.0913,2.0914,2.0914,2.0914,0,2.0188,2.023,2.0273,2.0339,2.0376,2.0409,2.0463,2.0492,2.0534,2.0585,2.0627,2.0684,2.0733,2.0792,2.0845,2.0865,2.0883,2.0877,2.0876,2.0885,2.0903,2.0895,2.0862,2.0862,2.0862,2.0862,2.0862,2.0862,2.0174,2.0214,2.025,2.0312,2.0355,2.0404,2.0432,2.0473,2.0515,2.0577,2.0619,2.0658,2.0713,2.0771,2.0818,2.0835,2.0852,2.0842,2.0863,2.0878,2.0883,2.0887,2.0881,2.0845,2.0845,2.0842,2.0842,2.0842]}]]